Home   Weather   Managua   Past weeks
Flag for Nicaragua

Past Weather in Managua, Nicaragua — Yesterday and Last 2 Weeks

Now
90 °F

Partly sunny.


Feels Like: 98 °F
Forecast: N/A
Wind: 14 mph from East

Location: Managua A. C. Sandino

Current Time: Jul 22, 2019 at 3:18:10 pm

Latest Report: Jul 22, 2019 at 2:00 pm


Visibility: 5 mi

Pressure: 29.83 "Hg

Humidity: 59%

Dew Point: 73 °F

Location of ManaguaLocation

Past Weather in Managua — Graph

°F

Managua Temperature Yesterday

Maximum temperature yesterday: 93 °F (at 3:00 pm)
Minimum temperature yesterday: 77 °F (at 4:00 am)
Average temperature yesterday: 85 °F

High & Low Weather Summary for the Past Weeks

 TemperatureHumidityPressure
High93 °F (Jul 14, 3:00 pm)100% (Jul 15, 5:00 am)29.95 "Hg (Jul 15, 5:00 am)
Low72 °F (Jul 15, 5:00 am)46% (Jul 18, 1:00 pm)29.74 "Hg (Jul 12, 3:00 pm)
Average82 °F76%29.84 "Hg
* Reported Jul 7 2:00 pm — Jul 22 2:00 pm, Managua. Weather by CustomWeather, © 2019

Note: Actual official high and low records may vary slightly from our data, if they occured in-between our weather recording intervals... More about our weather records

Advertising

Managua Weather History for the Previous 24 Hours

Scroll right to see more
 ConditionsComfort  
Time TempWeatherWind HumidityBarometerVisibility
2:00 pm
Mon, Jul 22
90 °FPartly sunny.14 mph59%29.83 "Hg5 mi
1:00 pm91 °FPartly sunny.23 mph49%29.83 "Hg6 mi
12:00 pm90 °FScattered clouds.9 mph55%29.86 "Hg6 mi
11:00 am86 °FScattered clouds.7 mph62%29.89 "Hg5 mi
10:00 am84 °FPartly sunny.12 mph66%29.89 "Hg5 mi
9:00 am84 °FPartly sunny.7 mph66%29.86 "Hg5 mi
8:00 am82 °FScattered clouds.9 mph70%29.86 "Hg5 mi
7:00 am79 °FPartly sunny.7 mph79%29.86 "Hg5 mi
6:00 am77 °FScattered clouds.5 mph83%29.83 "HgN/A
5:00 am77 °FPassing clouds.5 mph83%29.83 "HgN/A
4:00 am77 °FPassing clouds.5 mph83%29.83 "HgN/A
10:00 pm
Sun, Jul 21
82 °FPassing clouds.9 mph74%29.86 "HgN/A
9:00 pm82 °FPassing clouds.9 mph74%29.83 "HgN/A
8:00 pm84 °FPassing clouds.7 mph70%29.80 "HgN/A
7:00 pm86 °FPassing clouds.7 mph66%29.80 "HgN/A
6:00 pm90 °FScattered clouds.18 mph52%29.77 "HgN/A
5:00 pm91 °FScattered clouds.18 mph52%29.77 "HgN/A
4:00 pm93 °FScattered clouds.14 mph53%29.77 "HgN/A
3:00 pm93 °FScattered clouds.16 mph53%29.77 "HgN/A
Weather by CustomWeather, © 2019

See weather overview